Theta_e
287 287 287 287 287 288 289 290 292 293 296 297 297 295 292 292 291 291 291 292 294 296 298 301 301 304 302 302 302 302 301 300 297 296 298 297 296 295 296 296 295 296 296
285 285 285 285 285 285 286 287 288 290 292 293 293 293 291 289 288 288 288 288 289 291 292 293 294 295 296 297 298 299 300 300 297 296 294 294 299 295 295 295 294 295 294
284 284 284 283 284 283 283 285 286 287 288 290 291 290 288 287 286 286 286 286 287 287 289 288 289 290 291 291 292 295 295 295 297 296 296 295 292 292 299 296 294 294 294
284 283 283 282 282 282 283 284 284 285 285 287 286 285 284 282 283 284 284 285 285 285 286 286 286 287 287 286 288 289 291 294 292 296 295 294 292 290 290 294 297 295 294
283 282 282 282 282 283 282 283 283 283 283 284 285 284 282 283 283 283 283 283 284 284 284 284 284 284 285 285 285 285 285 287 287 289 291 292 293 292 288 288 291 295 296
283 283 283 282 282 282 282 282 282 282 282 282 282 282 282 282 282 282 282 282 282 282 282 283 283 283 283 283 283 283 284 284 284 285 286 287 288 288 288 288 289 289 293
283 282 281 281 281 281 282 282 282 281 281 282 281 281 281 281 280 280 281 281 281 281 281 281 281 282 282 282 282 282 282 282 282 282 282 284 284 286 286 286 285 286 288
283 283 281 281 281 281 282 281 281 280 281 281 281 281 281 281 280 280 280 280 280 281 281 281 281 281 281 281 281 281 281 281 281 280 281 282 282 284 284 283 283 281 283
283 283 282 281 280 280 281 281 280 280 281 280 280 280 280 280 279 280 280 280 280 281 280 280 279 280 280 280 279 279 279 280 280 280 280 280 281 282 282 283 283 282 279
283 283 283 282 281 280 280 281 281 281 280 280 280 280 279 279 280 280 279 279 279 280 279 279 279 279 279 279 278 278 278 278 279 279 279 279 280 280 281 282 282 282 280
284 284 284 283 282 281 280 280 280 280 280 280 280 280 280 280 280 279 279 279 279 279 278 278 278 278 277 277 277 277 277 277 277 278 278 278 279 279 280 280 280 280 280
285 285 284 283 281 281 280 279 279 280 280 280 280 280 280 280 279 278 279 279 278 278 277 276 276 276 276 276 275 275 276 276 276 276 277 277 278 277 278 279 278 279 280
284 284 283 282 282 280 280 279 280 280 281 280 280 279 279 279 278 278 278 277 276 276 275 275 274 274 274 274 274 275 275 275 275 275 275 275 275 275 277 277 277 278 278
285 283 282 282 281 280 280 280 280 280 280 280 279 279 279 278 277 277 276 275 274 274 273 273 273 273 273 273 274 274 274 274 275 274 274 274 273 273 274 275 275 277 277
283 283 283 281 280 279 279 280 280 280 280 279 279 279 279 277 276 275 274 273 273 272 272 272 271 271 271 273 274 274 274 273 273 273 273 273 274 275 275 275 275 275 275
284 284 283 282 280 280 280 280 279 279 279 279 279 278 277 275 274 273 272 272 271 270 270 270 269 269 270 273 275 275 273 273 272 271 272 272 272 273 274 275 276 275 273
282 283 283 282 282 280 281 280 279 278 277 276 275 274 274 273 272 271 270 270 269 269 268 268 268 267 268 272 275 275 273 272 271 270 270 270 271 271 271 272 274 274 275
282 283 284 282 281 281 279 279 278 277 276 275 273 272 272 270 269 269 268 268 267 267 266 266 266 267 267 272 273 274 272 271 270 270 270 270 270 271 272 272 272 273 274
281 281 282 282 279 279 279 277 276 276 275 274 273 272 271 268 268 266 266 266 266 265 264 266 265 264 264 269 272 272 271 270 269 270 271 271 271 272 275 274 273 273 274
279 279 279 278 277 277 277 275 274 273 274 274 273 271 269 265 265 266 265 265 264 265 265 264 264 263 263 267 271 272 271 269 270 271 271 273 274 276 277 274 273 271 272
278 278 278 278 278 276 274 274 273 273 273 271 270 268 267 265 264 263 264 262 261 263 260 261 262 262 263 264 270 272 272 271 271 272 272 272 275 276 277 278 275 274 276
278 279 277 277 277 275 274 273 272 272 270 268 267 265 263 265 263 259 260 259 259 259 258 258 260 263 264 267 270 273 274 275 272 271 273 273 276 278 277 276 276 277 276
277 277 276 276 275 273 273 273 272 269 267 265 263 261 261 262 261 258 259 261 259 258 259 261 261 262 265 266 270 272 273 275 273 274 275 275 274 274 271 272 273 272 270
275 274 272 272 273 270 271 273 268 267 263 261 261 261 260 261 260 263 262 260 259 259 259 259 260 262 263 266 268 269 271 274 274 272 268 269 268 268 268 266 267 267 268
273 271 273 273 274 269 268 266 266 264 262 261 262 261 260 260 261 262 262 262 262 261 257 259 261 261 265 266 272 274 273 273 272 265 262 261 261 261 262 263 263 264 265
270 270 271 270 269 265 264 263 262 263 262 261 261 261 261 261 261 261 261 265 268 269 271 272 272 269 271 272 273 274 274 273 271 261 257 258 259 259 260 260 261 262 263
Wind_Speed
5 8 9 10 10 11 11 12 11 11 6 5 6 8 9 8 10 10 15 15 14 15 13 9 10 9 9 8 8 3 4 2 3 2 2 2 2 3 4 4 5 6 6
5 7 9 10 12 11 12 12 12 11 10 5 5 5 7 9 9 9 13 15 15 15 13 12 11 13 9 12 12 11 3 3 6 4 1 3 2 3 1 2 3 5 4
7 4 6 7 8 11 11 10 10 10 10 8 7 6 6 6 7 9 10 12 14 14 13 13 11 12 10 9 11 11 12 6 5 8 5 4 3 4 2 2 1 4 4
4 3 4 6 6 6 5 7 8 10 10 9 11 13 9 10 6 8 8 9 13 14 13 13 12 12 9 11 9 10 10 8 8 3 7 4 4 4 6 1 5 4 6
5 5 4 3 4 5 6 7 9 11 10 10 10 10 12 8 7 7 10 10 10 12 12 12 12 11 9 10 11 11 11 9 7 6 5 4 5 2 4 9 6 8 8
6 6 3 3 3 4 5 7 9 10 10 10 10 11 12 9 8 8 8 7 7 8 11 11 10 10 10 10 9 9 11 9 7 6 6 5 4 6 5 8 12 12 7
9 8 8 6 6 4 3 6 7 9 7 9 9 10 11 11 12 9 7 7 6 6 9 10 10 8 9 9 8 9 8 8 7 8 6 4 4 4 5 6 9 9 8
8 8 8 6 6 5 4 6 6 8 6 8 9 8 8 7 7 7 7 6 6 5 6 7 8 9 9 8 8 6 6 6 6 8 7 6 6 5 5 5 8 10 9
12 10 7 7 6 6 6 7 7 6 6 6 6 7 7 8 8 7 7 6 5 4 5 6 6 7 8 8 8 6 7 6 7 7 7 7 7 6 6 6 6 7 8
9 10 10 8 6 6 6 7 7 7 7 6 5 6 7 7 7 6 7 6 5 5 6 7 8 8 8 8 8 7 7 7 6 6 9 8 7 9 7 7 7 7 10
14 12 10 8 8 6 7 7 7 8 8 7 6 7 7 6 6 6 5 5 5 6 7 7 7 8 8 8 8 8 8 10 10 9 10 12 11 9 9 9 9 9 9
13 12 12 10 9 9 8 9 8 8 8 8 6 6 6 5 5 5 5 5 5 5 4 5 5 6 7 8 8 9 8 10 12 12 13 13 10 13 12 9 12 11 11
11 10 9 11 11 10 9 10 9 10 8 7 7 6 6 5 5 5 5 4 4 3 3 4 5 6 7 8 7 7 10 10 11 11 12 13 14 13 11 12 12 11 10
11 9 8 11 10 10 11 10 10 9 8 8 7 7 6 6 5 4 4 3 3 4 4 4 5 6 7 8 8 10 10 11 11 12 12 13 14 15 14 13 13 12 12
9 8 10 10 10 10 10 9 9 9 8 8 8 7 6 6 5 4 3 3 3 3 3 4 4 6 7 6 10 10 11 12 13 13 13 13 15 22 19 12 13 13 12
8 10 9 8 11 13 12 10 10 10 8 9 9 7 6 6 5 4 3 3 3 1 2 3 4 5 5 12 14 14 11 13 13 13 13 14 16 17 21 23 24 21 14
8 9 9 9 9 11 11 12 11 8 9 7 6 7 7 6 5 4 3 2 2 2 3 3 5 6 7 13 16 16 10 12 12 13 13 14 12 15 16 19 23 21 23
8 7 6 6 7 6 7 6 7 8 8 8 8 7 7 5 5 4 2 1 1 2 3 4 5 6 8 15 17 17 11 11 12 13 14 16 17 16 17 16 15 15 15
7 7 6 6 5 7 6 6 6 6 7 9 9 8 7 6 5 4 3 2 1 2 2 3 4 7 8 16 17 16 11 11 13 13 14 16 16 21 26 18 15 14 14
5 7 7 5 6 6 7 7 7 7 10 9 9 8 7 6 5 4 4 3 1 3 3 4 5 7 8 15 17 15 8 10 10 12 14 19 20 27 27 17 16 16 16
9 5 7 8 9 7 7 7 6 11 7 7 7 7 6 6 4 4 2 2 2 2 3 6 6 7 9 11 16 17 10 9 10 9 10 10 24 28 30 30 17 18 19
8 9 7 8 7 6 7 7 10 6 8 8 8 7 6 4 4 4 2 1 1 3 4 4 6 5 8 11 14 17 19 19 11 12 10 13 27 27 29 25 30 31 27
8 6 8 8 6 7 9 8 6 9 9 8 7 5 5 4 5 4 3 2 1 2 4 5 6 6 6 7 16 20 20 20 14 11 18 25 29 28 21 23 25 19 9
8 6 6 7 8 7 8 8 8 9 9 7 7 6 5 4 4 3 3 2 2 3 4 4 6 7 7 7 7 9 8 13 11 13 9 16 18 17 16 12 12 9 9
4 5 8 8 11 6 6 5 8 9 8 6 5 5 4 4 4 4 4 4 4 5 4 5 7 6 6 6 15 14 9 8 10 7 7 7 8 9 9 9 9 9 9
3 4 7 7 5 4 6 6 6 8 8 6 5 5 4 4 3 3 4 8 11 13 16 18 14 4 12 18 18 19 19 17 19 3 4 7 8 9 9 9 10 9 11
Wind_Direction
20 23 23 16 15 33 41 34 34 13 32 55 74 70 71 57 51 43 35 37 32 33 38 39 39 38 44 38 23 12 37 45 340 306 333 276 282 324 325 322 309 294 298
55 29 22 25 29 28 23 35 42 36 44 44 61 66 79 65 67 57 53 44 43 41 44 41 36 32 38 36 29 26 1 23 7 358 262 348 322 32 332 358 0 336 322
122 93 62 47 39 42 16 32 42 53 53 63 94 94 84 76 61 48 52 41 46 45 45 50 54 48 41 40 33 25 28 11 11 2 346 335 325 325 316 278 314 338 334
137 107 64 48 50 56 71 67 57 62 58 65 78 82 89 93 77 71 63 52 45 45 46 44 45 50 51 44 39 35 37 33 25 3 12 345 327 328 315 273 321 334 321
152 118 95 62 37 42 46 40 56 59 56 70 85 92 91 90 90 75 74 61 52 48 44 44 44 44 43 39 37 36 39 41 40 25 348 355 327 337 309 309 324 305 302
160 144 131 127 83 50 68 66 72 60 54 69 78 96 106 108 97 82 76 61 54 45 39 42 43 44 40 34 31 31 33 28 35 25 20 16 349 329 317 304 311 302 307
167 168 173 169 142 126 92 92 90 87 80 87 88 91 92 90 88 83 79 72 58 47 33 38 39 37 35 33 27 28 25 20 17 6 350 341 331 311 308 299 307 302 311
176 181 185 180 167 154 140 118 114 106 93 95 91 87 93 94 91 91 86 75 69 57 38 41 39 33 30 24 21 20 11 5 0 349 340 326 321 320 309 302 311 307 295
182 187 184 188 173 168 173 152 138 131 123 116 116 106 102 100 104 99 93 85 71 61 49 41 35 27 24 16 6 4 356 346 343 333 330 321 316 311 307 301 291 288 297
177 187 191 189 180 181 173 167 167 150 150 140 129 122 123 122 119 107 95 88 76 58 44 30 25 20 12 7 358 352 342 340 339 330 320 315 312 309 302 299 295 282 277
189 192 189 184 184 177 179 177 171 163 165 164 161 148 144 125 106 96 91 82 66 38 35 20 10 4 358 354 347 345 340 338 332 330 324 317 312 303 302 299 293 286 282
193 189 189 177 180 189 185 185 182 179 183 176 166 151 137 134 123 113 98 80 64 47 31 14 4 356 351 342 340 336 333 330 328 327 321 315 316 308 303 297 293 286 287
189 189 176 191 194 192 189 193 191 194 183 170 165 163 163 156 138 124 112 90 78 79 29 24 10 357 347 335 332 329 329 323 318 315 312 310 309 304 305 302 295 290 286
197 189 187 200 197 193 197 196 200 196 178 177 176 176 174 166 151 134 128 112 81 53 23 17 3 351 339 328 339 331 325 318 315 311 308 306 302 301 304 300 297 296 295
194 189 205 206 199 197 201 201 204 188 183 183 189 188 167 153 147 143 124 110 84 56 7 3 355 347 332 333 330 325 319 315 312 309 305 301 300 298 295 292 295 296 293
186 202 210 199 201 203 202 199 202 197 178 194 198 170 161 150 160 163 160 159 129 77 21 2 340 333 324 323 322 321 316 312 307 307 307 306 300 297 300 297 296 292 291
207 206 206 207 200 196 195 199 200 177 189 189 174 167 160 165 170 171 185 156 77 21 1 344 334 325 314 314 320 318 309 305 304 304 305 304 301 297 294 294 291 291 286
215 218 213 208 207 183 187 178 164 181 184 187 174 167 164 167 169 180 180 162 98 6 341 323 313 314 308 315 318 316 312 303 298 300 298 294 292 290 292 287 281 276 271
213 213 206 198 179 190 186 171 172 172 172 191 186 176 165 168 179 189 189 164 98 309 292 294 301 300 300 311 317 318 310 301 295 292 288 282 284 286 287 284 284 283 277
206 202 193 182 182 191 163 162 187 175 203 192 181 158 157 168 183 189 197 153 205 286 306 301 299 291 292 304 312 315 296 292 289 284 282 279 286 295 299 293 286 279 273
206 192 182 191 203 163 155 187 167 207 194 143 142 149 159 171 174 184 177 159 280 303 291 302 301 285 281 286 308 307 301 290 289 291 293 289 291 295 293 289 278 270 273
195 194 189 212 203 166 165 191 204 176 150 148 153 157 159 183 165 171 194 233 271 300 306 293 291 273 277 288 296 303 305 309 306 297 295 289 291 307 316 318 311 307 307
215 198 203 218 202 185 185 196 210 153 149 148 153 163 168 178 173 179 211 244 209 283 296 299 305 305 302 285 288 299 303 307 307 302 309 330 321 317 315 307 311 318 313
223 202 183 224 239 201 199 210 151 149 146 155 167 171 181 186 194 203 207 214 252 263 272 283 282 282 285 270 288 282 278 293 310 331 338 329 328 322 316 315 317 314 310
221 169 198 223 242 177 196 164 152 146 157 163 169 179 182 196 204 220 234 238 225 210 220 237 246 261 266 275 292 311 311 314 332 12 345 329 332 325 322 319 313 311 309
203 204 224 227 237 164 160 158 147 153 151 166 176 188 190 200 207 224 264 267 271 276 278 282 280 248 288 302 304 309 316 342 334 19 324 319 318 316 318 316 314 312 308